CZ-6A DEB

Satellite information

Favourite Embed

Satellite Type and Status

DEBRISIN ORBIT

Key statistics

Satellite CZ-6A DEB at a glance.

Uptime

1030

Days in orbit

Revolutions

≈ 14.1

Per day

Orbit

SSO

Sun Synchronous Orbit

Inclination

98.8

Latest

Satellite identification and parameters

Extended collection of information and parameters for CZ-6A DEB.

Object identification

Identified? True

Debris? True

Object name: CZ-6A DEB

International designator: 2022-151KH

Object number (NORAD): 54529

Object ID (CCSDS): 54529

Country: PEOPLES REPUBLIC OF CHINA (PRC)

Current information (Y/N): Y

RCS size: MEDIUM

Orbital parameters

Period: 102.179 minutes

Inclination: 98.8275 deg

SMA: 7239.954 km

Apoapsis: 895.367 km

Periapsis: 828.271 km

RAAN: 247.1503 deg

Eccentricy: 0.00463373

Argument of periapsis: 52.9041 deg

Mean anomaly: 307.6351 deg

Mean motion: 14.09285661 rev/day

Mean motion (dot): 0.00000198 rev/day2

B* drag term: 0.00013723082 1/REarth

Two-line elements (TLE)

Creation date: Sept. 6, 2025, 2:09 a.m.

Reference frame: TEME

Reference center: EARTH

Epoch: Sept. 5, 2025, 9:45 p.m. UTC

TLE line 0: 0 CZ-6A DEB

TLE line 1: 1 54529U 22151KH 25248.90662039 .00000198 00000-0 13723-3 0 9999

TLE line 2: 2 54529 98.8275 247.1503 0046337 52.9041 307.6351 14.09285661144637

Live tracking on map

Real-time ground track for satellite CZ-6A DEB.

In-orbit conjunctions

A list of the most updated potential collisions computed for object CZ-6A DEB.

Target Orbit TCA Probability of collision Miss distance Type
COSMOS 1275 DEB LEO 2025-05-29 22:52:00 0.0001481843 184.0 (m) DEBRIS

Associated space launch

Chinese satellite reported for atmospheric/ocean/environmental/spatial parameter research purposes, details TBD.

CZ-6A DEB was lifted into orbit during the mission ‘Long March 6A | Yunhai 3’, on board a Long March 6A space rocket.

The launch took place on Nov. 11, 2022, 10:52 p.m. from Launch Complex 9A.

For more information about the launch, click the button.

Launch to space Long March 6A | Yunhai 3
Long March 6A | Yunhai 3

Agency: N/A

Status: Launch Successful

Launch date: Nov. 11, 2022, 10:52 p.m. UTC

Rocket: Long March 6A

Launch pad: Launch Complex 9A

Location: Taiyuan Satellite Launch Center, People's Republic of China

...

Latest news about this satellite

There are no fresh news available about this satellite. Check back as we update our databases every day.


Newsletter sign-up

Weekly statistics, charts and insights to help you stay on top of the space industry.